Flag for Belgium Weather past 2 weeks in Mechelen, Belgium

50 °F

Rain. Passing clouds.

Feels Like: 43 °F
Forecast: 46 / 56 °F
Wind: 25 mph from Southwest

Location: Brussels National Airport

Current Time: Nov 29, 2015 at 11:05:03 PM

Latest Report: Nov 29, 2015 at 9:50 PM

Visibility: 3 mi

Pressure: 29.89 "Hg

Humidity: 94%

Dew point: 48 °F

Location of MechelenLocation

Historic Weather in Mechelen — Graph


Mechelen temperature yesterday

Maximum temperature yesterday: 46 °F (at 9:20 PM)
Minimum temperature yesterday: 39 °F (at 12:50 AM)
Average temperature yesterday: 43 °F

Past Weeks' High & Low Weather Summary

High61 °F (Nov 15, 1:50 PM)100% (Nov 17, 1:20 PM)30.27 "Hg (Nov 17, 1:20 PM)
Low30 °F (Nov 23, 8:20 AM)11% (Nov 16, 5:20 PM)29.39 "Hg (Nov 21, 12:20 PM)
Average46 °F84%29.89 "Hg
* Reported Nov 14 9:20 PM — Nov 29 9:20 PM, Mechelen, Weather by CustomWeather, © 2015

Note: Actual official high and low records may vary slightly from our data, if they occured in-between our weather recording intervals... More about our weather records


Mechelen weather history for previous 24 hours

Time TempWeatherWind HumidityBarometerVisibility
9:20 PM
Sun, Nov 29
50 °FLight rain. Partly cloudy.25 mph94%29.89 "Hg4 mi
8:50 PM52 °FRain. Partly cloudy.26 mph88%29.89 "Hg3 mi
8:20 PM52 °FLight rain. Passing clouds.26 mph82%29.86 "Hg4 mi
7:50 PM52 °FPassing clouds.28 mph82%29.86 "HgN/A
7:20 PM50 °FPartly cloudy.26 mph94%29.86 "Hg4 mi
6:50 PM50 °FSprinkles. Passing clouds.23 mph94%29.86 "Hg5 mi
6:20 PM50 °FSprinkles. Passing clouds.21 mph94%29.86 "Hg5 mi
5:50 PM52 °FSprinkles. Passing clouds.23 mph82%29.86 "Hg4 mi
5:20 PM52 °FPassing clouds.22 mph82%29.86 "Hg4 mi
4:50 PM52 °FSprinkles. Passing clouds.21 mph82%29.86 "Hg4 mi
4:20 PM50 °FSprinkles. Partly sunny.23 mph94%29.86 "Hg2 mi
3:50 PM52 °FSprinkles. Broken clouds.25 mph82%29.83 "HgN/A
3:20 PM52 °FSprinkles. Partly sunny.24 mph82%29.83 "HgN/A
2:50 PM52 °FPartly sunny.23 mph82%29.83 "HgN/A
2:20 PM52 °FPartly sunny.25 mph82%29.83 "HgN/A
1:50 PM52 °FPartly sunny.23 mph82%29.83 "HgN/A
1:20 PM52 °FPartly sunny.25 mph82%29.83 "HgN/A
12:50 PM52 °FLight rain. Broken clouds.24 mph82%29.83 "Hg3 mi
12:20 PM50 °FLight rain. Broken clouds.21 mph88%29.86 "Hg6 mi
11:50 AM50 °FLight rain. Broken clouds.23 mph88%29.86 "Hg6 mi
11:20 AM50 °FLight rain. Broken clouds.22 mph88%29.86 "HgN/A
10:20 AM50 °FScattered clouds.20 mph82%29.86 "HgN/A
9:50 AM50 °FScattered clouds.18 mph82%29.86 "HgN/A
9:20 AM50 °FLight rain. Partly sunny.18 mph82%29.86 "HgN/A
8:50 AM48 °FLight rain. Partly sunny.17 mph87%29.86 "HgN/A
8:20 AM48 °FScattered clouds.20 mph87%29.83 "HgN/A
7:50 AM48 °FPassing clouds.20 mph87%29.83 "HgN/A
7:20 AM48 °FSprinkles. Partly cloudy.20 mph87%29.83 "HgN/A
6:50 AM48 °FPassing clouds.17 mph87%29.83 "HgN/A
5:50 AM46 °FPassing clouds.16 mph87%29.83 "HgN/A
5:20 AM46 °FLight rain. Passing clouds.18 mph93%29.83 "HgN/A
4:50 AM48 °FLight rain. Passing clouds.21 mph82%29.83 "HgN/A
4:20 AM48 °FPassing clouds.22 mph82%29.80 "HgN/A
3:50 AM46 °FPassing clouds.20 mph87%29.80 "HgN/A
3:20 AM46 °FPassing clouds.20 mph87%29.83 "HgN/A
2:50 AM46 °FPassing clouds.25 mph87%29.80 "HgN/A
2:20 AM46 °FRain. Passing clouds.25 mph87%29.80 "Hg5 mi
1:50 AM46 °FRain. Passing clouds.24 mph82%29.80 "Hg5 mi
1:20 AM46 °FLight rain. Passing clouds.26 mph82%29.80 "HgN/A
12:50 AM46 °FLight rain. Partly cloudy.25 mph82%29.80 "Hg6 mi
12:20 AM45 °FLight rain. Passing clouds.22 mph87%29.83 "HgN/A
11:50 PM
Sat, Nov 28
45 °FLight rain. Passing clouds.20 mph87%29.83 "HgN/A
Weather by CustomWeather, © 2015

See weather overviewHow to use our weather pages